Tracking 28125 objects as of 4-Oct-2023
HD Live streaming from Space Station
objects crossing your sky now

THORAD AGENA D DEB

Track THORAD AGENA D DEB now!
10-day predictions


NORAD ID: 6766
Int'l Code: 1970-025NH
Perigee: 832.5 km
Apogee: 950.5 km
Inclination: 100.1 °
Period: 102.7 minutes
Semi major axis: 7262 km
RCS: 0.0383 m2 (small)
Launch date: April 8, 1970
Source: United States (US)
Launch site: AIR FORCE WESTERN TEST RANGE (AFWTR)

Note: This is SATELLITE DEBRIS
Your satellite tracking list
Your tracking list is empty




NASA's NSSDC Master Catalog

Two Line Element Set (TLE):
1 06766U 70025NH  23276.72294773  .00002594  00000-0  16639-2 0  9997
2 06766 100.1407 186.5080 0081269 224.2992 135.1647 14.02729298696691
Source of the keplerian elements: AFSPC